Olympia, WA
on Friday, January 25, 2013

Friday
Previous Day Next Day
Daily Summary
 ActualAverageRecord
Temperature
Mean Temperature °F 40°F  
Max Temperature 53°F 47°F 57°F (2003)
Min Temperature 30°F 34°F 2°F (1950)
Degree Days
Heating Degree Days 23 25  
Month to date heating degree days 743 635  
Since 1 July heating degree days 2906 2905  
Cooling Degree Days 0 0  
Month to date cooling degree days 0 0  
Year to date cooling degree days 0 0  
Moisture
Dew Point 38°F   
Average Humidity 86    
Maximum Humidity 100    
Minimum Humidity 71    
Precipitation
Precipitation 0.05 in 0.23 in 2.11 in (1971)
Month to date precipitation 3.27 6.44  
Year to date precipitation 3.27 6.44  
Wind
Wind Speed 4 mph   
Max Wind Speed 15 mph   
Max Gust Speed 19 mph   
Visibility 5 miles   
Events Fog , Rain   

Key: T is trace of precipitation, MM is missing value
Source: NWS Daily Summary
Time(PST)TemperatureDew PointHumidity Pressure Visibility Wind DirectionWind SpeedGust SpeedPrecipitationEvents Conditions
12:18 AM 45.0°F 42.1°F 90% 30.06 in 8.0 miles SSW 10.4 mph - 0.00 in Rain Light Rain
12:54 AM 44.1°F 42.1°F 93% 30.06 in 9.0 miles SSW 11.5 mph - 0.02 in Rain Light Rain
1:14 AM 44.1°F 42.1°F 93% 30.05 in 8.0 miles SSW 10.4 mph - 0.01 in Rain Light Rain
1:54 AM 44.1°F 42.1°F 93% 30.06 in 10.0 miles SSW 8.1 mph - 0.01 in   Overcast
2:05 AM 44.1°F 42.1°F 93% 30.06 in 8.0 miles SW 8.1 mph - 0.00 in Rain Light Rain
2:13 AM 44.1°F 42.1°F 93% 30.06 in 5.0 miles SSW 9.2 mph - 0.01 in Rain Light Rain
2:22 AM 44.1°F 42.1°F 93% 30.06 in 7.0 miles SW 9.2 mph - 0.02 in Rain Light Rain
2:54 AM 44.1°F 42.1°F 93% 30.07 in 10.0 miles SW 6.9 mph - 0.02 in   Overcast
3:54 AM 43.0°F 42.1°F 97% 30.06 in 6.0 miles WSW 3.5 mph - 0.00 in Rain Light Rain
4:54 AM 43.0°F 42.1°F 97% 30.06 in 8.0 miles SSW 5.8 mph - 0.00 in   Overcast
5:54 AM 43.0°F 42.1°F 97% 30.06 in 7.0 miles SSW 5.8 mph - 0.00 in   Overcast
6:54 AM 43.0°F 42.1°F 97% 30.06 in 7.0 miles SW 4.6 mph - N/A   Overcast
7:54 AM 41.0°F 39.9°F 96% 30.05 in 4.0 miles WSW 3.5 mph - N/A   Overcast
8:49 AM 39.2°F 39.2°F 100% 30.05 in 5.0 miles SSW 4.6 mph - N/A   Mostly Cloudy
8:54 AM 41.0°F 39.9°F 96% 30.06 in 5.0 miles SW 4.6 mph - N/A   Mostly Cloudy
9:42 AM 44.1°F 43.0°F 96% 30.05 in 4.0 miles SSW 6.9 mph - N/A   Overcast
9:54 AM 44.1°F 43.0°F 96% 30.06 in 4.0 miles SSW 5.8 mph - N/A   Overcast
10:54 AM 44.6°F 42.8°F 93% 30.06 in 8.0 miles SSW 6.9 mph - N/A   Overcast
11:05 AM 45.0°F 44.1°F 97% 30.05 in 7.0 miles SW 4.6 mph - N/A   Overcast
11:54 AM 46.9°F 45.0°F 93% 30.04 in 8.0 miles South 4.6 mph - N/A   Overcast
12:14 PM 48.0°F 44.1°F 86% 30.02 in 10.0 miles SSW 4.6 mph - N/A   Mostly Cloudy
12:54 PM 48.9°F 45.0°F 86% 30.01 in 10.0 miles SSW 5.8 mph - N/A   Mostly Cloudy
1:11 PM 50.0°F 45.0°F 83% 30.00 in 10.0 miles WSW 3.5 mph - N/A   Mostly Cloudy
1:54 PM 51.1°F 44.1°F 77% 29.99 in 10.0 miles South 5.8 mph - N/A   Mostly Cloudy
2:54 PM 52.0°F 44.1°F 74% 29.97 in 10.0 miles Calm Calm - N/A   Mostly Cloudy
3:54 PM 51.1°F 42.1°F 71% 29.96 in 10.0 miles SW 4.6 mph - N/A   Mostly Cloudy
4:54 PM 48.9°F 42.1°F 77% 29.97 in 10.0 miles SSW 4.6 mph - N/A   Mostly Cloudy
5:54 PM 43.0°F 41.0°F 93% 29.97 in 10.0 miles Calm Calm - N/A   Scattered Clouds
6:49 PM 42.8°F 39.2°F 87% 29.96 in 10.0 miles SSW 5.8 mph - N/A   Mostly Cloudy
6:54 PM 41.0°F 39.0°F 93% 29.97 in 10.0 miles SSW 5.8 mph - N/A   Mostly Cloudy
7:07 PM 41.0°F 39.0°F 93% 29.96 in 10.0 miles SSW 4.6 mph - N/A   Scattered Clouds
7:54 PM 37.0°F 36.0°F 96% 29.96 in 9.0 miles Calm Calm - N/A   Clear
8:05 PM 36.0°F 35.1°F 97% 29.95 in 1.5 miles Calm Calm - N/A   Clear
8:07 PM 36.0°F 35.1°F 97% 29.95 in 0.8 miles Calm Calm - N/A   Mist
8:37 PM 36.0°F 36.0°F 100% 29.95 in 1.2 miles SSE 3.5 mph - N/A   Partly Cloudy
8:41 PM 36.0°F 36.0°F 100% 29.95 in 2.0 miles South 3.5 mph - N/A   Clear
8:49 PM 35.6°F 35.6°F 100% 29.95 in 1.2 miles SSW 4.6 mph - N/A   Clear
8:54 PM 33.1°F 33.1°F 100% 29.96 in 0.5 miles SSW 4.6 mph - N/A Fog Fog
9:01 PM 32.0°F 32.0°F 100% 29.95 in 0.5 miles Calm Calm - N/A Fog Fog
9:10 PM 33.1°F 33.1°F 100% 29.95 in 1.0 miles Calm Calm - N/A   Mostly Cloudy
9:14 PM 34.0°F 33.1°F 96% 29.95 in 2.0 miles Calm Calm - N/A   Mostly Cloudy
9:18 PM 34.0°F 34.0°F 100% 29.95 in 3.0 miles Calm Calm - N/A   Mostly Cloudy
9:28 PM 34.0°F 33.1°F 96% 29.95 in 1.8 miles Calm Calm - N/A   Mostly Cloudy
9:37 PM 34.0°F 33.1°F 96% 29.95 in 0.8 miles Calm Calm - N/A   Mostly Cloudy
9:49 PM 33.8°F 33.8°F 100% 29.95 in 0.5 miles Calm Calm - N/A Fog Fog
9:50 PM 33.8°F 33.8°F 100% 29.95 in 0.5 miles Calm Calm - N/A Fog Fog
9:57 PM 34.0°F 33.1°F 96% 29.94 in 0.2 miles Calm Calm - N/A Fog Fog
10:06 PM 30.9°F 30.9°F 100% 29.94 in 0.2 miles Calm Calm - N/A Fog Light Freezing Fog
10:45 PM 32.0°F 32.0°F 100% 29.95 in 0.5 miles Calm Calm - N/A Fog Fog
10:54 PM 32.0°F 32.0°F 100% 29.95 in 0.8 miles SW 3.5 mph - N/A   Overcast
11:01 PM 32.0°F 32.0°F 100% 29.95 in 1.0 miles Calm Calm - N/A   Overcast
11:13 PM 34.0°F 34.0°F 100% 29.95 in 1.2 miles SSW 3.5 mph - N/A   Overcast
11:32 PM 32.0°F 30.9°F 96% 29.94 in 0.8 miles Calm Calm - N/A   Mostly Cloudy
11:49 PM 32.0°F 32.0°F 100% 29.94 in 0.2 miles Calm Calm - N/A Fog Fog
11:54 PM 32.0°F 32.0°F 100% 29.94 in 0.5 miles Calm Calm - N/A Fog Fog
Moon Phase
Jan. 25 Jan. 26 Feb. 03 Feb. 10 Feb. 17
Sunrise:07:44 AM (PST) Moon Rise:04:07 PM (PST)1/25
Sunset:05:04 PM (PST) Moon Set:06:27 AM (PST)1/25

Copyright © 2014 The Weather Underground, Inc.